Location: ??
(34.7252°N, 135.5457°E)
Time: 08:06:48
(UTC+00:00)

MSX - Pass Details

Date: 24 September 2020
Orbit: 894 x 906 km, 98.8° (Epoch: 28 October)

Event Time Altitude Azimuth Distance (km) Brightness Sun altitude
Rises 19:05:08 0° 2° (N) 3,534 7.1 -21.7°
Reaches altitude 10° 19:07:45 10° 354° (N) 2,588 6.3 -21.2°
Maximum altitude 19:12:52 34° 291° (WNW) 1,436 4.5 -20.2°
Enters shadow 19:13:21 34° 281° (W) 1,449 4.4 -20.1°
